Theta_e
322 321 320 319 317 315 314 313 313 314 314 315 315 316 316 316 315 315 315 316 315 315 316 314 315 316 317 318 318 317 317 317 317 317 317 317 317 316 316 316 317 317 317 316 315 314 315 317 318 318 318 317 315 315 316 317 317 318 323 320 320 325 323 322 325 319 315 316 315 312 310 310 312 311 311 311 311 310 311 311 311 311 312 313 313 313 313 313
321 320 319 317 316 314 313 313 313 313 314 315 316 315 316 316 315 315 315 314 314 314 315 314 314 316 317 318 318 317 317 317 317 316 316 316 317 316 316 316 316 317 316 316 315 314 316 318 317 317 317 316 315 316 316 316 317 321 322 319 325 331 321 316 318 314 313 315 313 311 310 309 311 310 309 311 311 310 310 311 311 311 314 315 314 313 313 312
319 318 317 316 314 313 313 313 313 313 314 315 315 316 315 315 315 315 315 314 313 313 314 313 314 315 317 317 317 318 317 316 317 316 315 316 317 316 315 316 316 317 316 315 314 313 315 317 317 317 317 316 315 316 315 315 316 317 316 321 333 328 315 312 312 313 313 313 310 310 310 309 310 310 309 310 309 310 310 312 311 311 315 316 315 314 312 312
316 315 315 314 313 313 313 313 313 313 315 316 315 316 315 315 315 314 314 314 313 312 312 312 313 315 316 317 317 318 317 317 317 316 316 317 317 315 315 316 316 317 316 315 313 312 315 316 316 316 316 316 314 315 314 314 316 314 314 324 328 316 313 314 312 313 312 311 310 309 309 309 311 310 309 309 310 312 312 313 313 313 315 315 315 314 312 312
314 314 313 313 313 312 313 313 313 313 315 316 315 316 316 315 314 314 314 314 313 312 312 312 313 315 316 316 318 317 317 319 317 315 316 316 316 315 316 316 316 316 316 315 313 312 314 314 315 316 316 315 314 315 314 313 314 314 314 317 316 311 313 314 312 313 312 310 309 308 309 310 310 310 310 310 310 312 314 316 314 313 314 314 313 313 312 313
313 313 313 313 312 312 312 313 313 313 315 316 316 316 316 315 315 315 315 314 314 312 312 312 314 316 316 317 317 317 318 319 317 315 316 315 316 316 316 316 316 317 315 314 312 312 313 313 315 315 313 314 314 313 313 312 312 315 315 311 310 310 312 313 312 312 311 309 308 308 310 309 308 309 310 309 310 313 316 317 314 313 314 313 312 313 313 314
313 313 313 312 312 312 312 312 313 313 315 316 316 315 316 316 315 315 315 314 314 313 313 313 316 317 317 317 317 317 318 318 316 316 316 316 316 316 316 317 316 317 315 313 312 312 313 313 315 313 312 317 314 311 312 311 309 313 316 311 311 311 309 311 311 310 310 308 308 309 308 307 308 310 310 309 311 314 315 315 314 314 314 313 313 314 314 314
314 314 312 312 312 312 312 312 312 313 314 316 316 316 316 316 315 315 315 314 314 313 312 314 317 318 317 318 317 317 317 317 316 316 316 317 318 317 317 317 317 318 314 313 312 312 314 314 315 314 315 317 313 311 311 310 310 312 315 311 310 311 310 311 310 309 309 307 308 308 307 308 310 310 309 309 312 314 314 314 315 315 315 315 315 316 315 315
316 315 313 312 312 312 312 312 312 313 314 315 316 315 316 316 315 315 315 314 313 313 313 315 318 318 318 318 317 317 316 317 317 317 317 318 318 318 318 317 318 317 314 313 313 313 314 314 314 315 315 314 312 312 309 312 315 312 312 310 308 310 311 310 309 309 309 308 307 308 309 311 311 310 309 311 313 314 315 315 315 316 316 316 316 316 316 315
316 315 314 312 312 312 312 312 312 313 314 315 316 316 316 316 315 315 316 314 313 314 313 316 319 318 318 317 317 317 316 317 317 317 318 318 318 318 317 317 317 317 315 315 315 314 314 315 315 315 315 312 311 311 309 312 315 310 309 309 308 309 309 309 309 309 309 309 308 309 312 311 309 309 311 312 313 314 315 315 315 315 315 316 316 315 315 315
317 316 314 313 312 312 312 312 312 313 314 315 316 316 316 315 315 315 316 315 313 313 314 317 318 318 318 317 317 317 316 317 317 317 317 317 318 317 317 316 316 316 316 316 315 315 314 315 315 315 315 312 311 311 310 311 311 309 309 309 308 308 309 310 310 308 309 312 310 308 310 308 307 309 311 312 313 314 314 314 314 315 315 315 315 315 315 315
317 316 315 314 312 312 313 313 313 313 314 315 316 317 316 316 315 315 316 315 314 314 314 317 318 318 318 317 317 317 317 317 317 317 317 317 316 316 316 316 315 315 316 316 315 315 315 315 315 315 314 313 313 312 311 310 309 309 308 310 312 312 314 312 311 309 309 313 312 309 311 311 311 314 313 312 313 314 313 313 314 314 314 314 314 314 314 314
318 317 316 314 313 313 313 313 313 313 314 315 316 317 317 316 315 314 316 317 315 314 315 317 317 318 318 317 317 316 317 317 317 316 316 316 315 315 314 314 314 313 314 315 315 315 314 314 313 312 312 312 312 312 312 308 307 309 307 309 314 315 318 314 310 310 311 313 312 312 314 314 315 315 313 313 313 313 312 312 312 313 313 313 313 313 313 313
318 318 316 315 314 313 313 313 313 314 315 315 316 317 317 316 316 315 316 317 316 314 316 317 317 318 318 316 317 317 317 316 316 315 314 314 315 315 314 313 313 312 313 314 314 314 313 313 312 310 311 311 310 310 312 310 311 313 309 314 318 315 319 316 311 312 313 313 310 312 315 314 314 313 312 313 312 312 312 311 312 311 312 312 312 312 312 312
319 319 317 316 314 313 313 313 314 314 315 316 316 317 317 317 316 316 316 317 317 316 317 317 316 318 317 316 317 316 317 316 315 315 314 314 314 314 314 313 312 312 313 313 313 313 313 312 310 310 310 310 311 312 315 320 323 319 313 320 322 315 316 314 311 311 313 313 310 312 316 314 313 313 313 313 312 312 311 312 312 311 312 312 312 312 313 313
321 320 318 315 314 314 313 313 314 314 315 316 316 316 316 316 316 317 316 317 317 316 318 317 316 318 318 317 316 316 317 316 316 315 314 314 313 314 314 312 312 313 313 313 313 313 312 312 310 310 310 310 313 314 318 326 330 325 318 318 319 315 314 313 312 310 309 311 311 312 313 313 313 313 313 312 312 312 311 311 312 312 312 312 312 312 313 314
322 321 318 315 314 313 313 314 314 315 315 314 315 317 316 315 317 318 316 317 317 317 319 317 316 318 318 317 317 317 317 315 316 315 315 314 313 314 314 312 312 313 313 314 314 312 312 312 310 311 312 312 315 317 321 323 323 323 318 316 317 316 313 313 314 310 307 310 312 312 312 311 312 312 312 313 312 312 311 311 312 312 312 312 312 313 313 314
322 320 317 314 313 313 314 314 314 315 314 313 314 315 315 315 318 318 318 318 317 317 319 316 316 318 316 316 317 316 316 316 315 315 315 313 313 314 313 312 312 313 314 314 313 312 312 311 311 317 319 315 317 318 319 319 317 317 317 316 316 314 313 313 315 312 310 311 311 313 313 312 312 312 311 312 312 312 311 312 312 312 312 313 313 313 313 313
321 319 315 313 314 313 314 313 313 313 312 313 315 314 313 314 316 316 318 320 317 317 319 316 316 318 316 316 316 315 316 316 315 315 315 313 313 314 313 312 312 313 313 314 314 311 311 314 316 322 321 316 317 314 313 316 315 315 314 314 315 314 313 312 313 312 310 311 312 313 314 312 312 312 312 312 312 312 311 312 312 312 313 313 313 313 311 310
321 318 314 313 313 313 314 312 311 311 311 313 314 312 310 312 314 315 315 318 316 314 316 316 315 316 316 316 316 316 316 316 315 315 314 312 312 313 313 312 312 314 313 313 315 311 311 318 322 321 319 316 315 311 311 313 312 313 314 315 314 313 313 312 313 312 309 311 313 314 313 312 312 312 311 312 311 311 311 311 311 312 312 312 311 310 308 307
319 316 314 314 313 312 313 311 310 309 308 309 310 309 307 308 312 312 311 315 316 314 316 317 316 315 315 316 316 315 315 315 314 315 313 311 312 313 312 312 314 316 312 309 311 313 313 319 322 320 317 316 314 311 311 312 312 313 315 316 314 313 314 312 312 312 310 311 313 314 314 312 312 312 311 311 311 311 311 311 311 312 311 310 308 307 306 305
317 315 314 314 312 311 310 309 310 308 307 307 308 307 306 305 308 310 311 315 316 314 316 317 316 315 315 315 315 314 314 313 313 314 311 310 312 312 311 313 315 315 314 312 314 316 317 322 323 315 310 313 314 312 311 311 313 315 315 316 315 314 315 314 313 313 312 312 313 313 313 311 311 311 310 310 311 311 311 311 311 310 309 307 306 306 305 304
316 314 314 314 312 310 308 308 309 308 307 307 307 305 305 304 306 310 313 315 316 314 315 316 315 314 315 315 314 313 312 313 313 312 310 311 313 312 311 313 315 314 315 316 316 315 316 321 319 309 307 312 315 316 314 312 314 316 316 316 316 315 314 314 314 313 312 311 311 312 313 312 311 310 310 310 310 310 310 311 310 309 308 307 306 305 304 303
316 315 314 314 311 308 307 308 309 308 307 307 306 304 304 304 306 312 314 313 315 315 314 316 314 314 315 314 313 312 312 312 312 310 311 312 311 311 311 310 312 316 316 312 312 314 315 314 309 308 313 314 313 317 315 313 315 317 318 316 315 316 315 314 313 311 311 310 311 313 313 312 310 309 309 309 309 309 309 309 309 309 308 307 305 304 302 302
316 315 314 313 311 308 307 308 308 307 307 306 305 304 304 304 307 313 313 313 317 316 315 316 314 314 315 314 311 310 311 312 310 310 311 311 310 311 311 308 310 317 317 312 311 314 313 309 306 311 318 314 312 316 314 313 315 318 319 317 316 316 316 315 313 311 311 310 310 312 310 309 308 308 308 308 309 309 309 309 309 307 308 307 305 303 302 300
316 315 314 313 312 308 307 308 307 306 306 306 305 304 304 305 309 313 312 316 320 317 316 316 315 315 314 313 310 308 312 312 308 309 311 310 309 309 310 310 309 313 313 310 311 312 311 309 309 313 314 313 314 315 314 313 313 316 317 315 315 315 315 315 313 311 311 309 308 310 309 309 309 308 308 309 309 310 310 310 308 307 307 306 304 302 300 299
316 315 313 313 312 308 307 306 305 305 305 305 304 304 303 306 312 312 312 321 321 314 315 316 314 315 314 312 310 308 311 311 308 310 310 309 309 308 310 311 310 310 308 307 313 315 312 312 314 315 313 313 314 314 314 312 312 317 316 312 312 312 312 312 311 311 310 309 308 309 311 311 310 309 310 311 311 311 311 309 308 306 306 305 303 300 299 299
315 314 313 312 310 308 306 304 305 304 304 304 304 304 304 308 313 312 316 326 321 313 315 314 313 315 313 311 309 308 309 309 310 312 309 307 307 307 309 310 309 310 306 307 315 314 310 313 314 314 311 311 313 313 313 311 313 319 316 310 310 310 311 311 310 310 309 309 309 309 310 311 310 309 310 312 311 311 310 308 308 307 305 304 301 299 299 299
314 314 313 310 309 308 305 304 304 304 304 304 303 304 306 309 312 314 321 324 316 313 313 313 314 314 312 311 310 308 309 309 310 310 308 306 306 307 310 309 306 309 307 306 312 312 309 310 310 309 309 311 313 311 313 314 312 313 311 309 309 309 310 310 309 310 309 310 310 309 309 311 311 309 308 310 310 309 307 305 306 304 302 302 299 298 299 299
314 314 312 309 307 306 305 304 304 303 304 304 304 305 308 311 314 319 328 324 313 312 312 313 315 312 312 315 313 308 308 309 308 307 306 305 306 307 308 307 305 309 311 309 312 312 307 307 307 307 307 310 311 308 310 312 307 307 310 310 310 310 311 311 311 311 311 311 310 309 310 310 309 307 307 308 308 307 303 301 302 301 299 300 298 298 300 299
313 312 311 308 306 304 304 304 303 303 303 304 306 306 307 313 317 322 328 321 312 313 313 314 315 314 314 315 313 311 309 308 305 305 307 306 308 309 309 311 309 312 318 317 317 315 311 311 309 307 307 307 309 308 307 307 304 306 311 310 310 312 311 310 311 311 311 309 307 308 308 306 304 304 305 306 305 305 301 298 298 298 297 298 298 299 299 299
312 311 309 307 304 303 303 303 303 303 303 305 307 307 311 317 320 325 326 320 316 316 315 314 313 315 315 311 311 311 310 309 305 305 308 308 310 309 309 311 309 311 316 315 314 314 317 318 310 307 307 306 309 310 307 308 306 305 309 310 309 309 307 305 307 308 307 306 305 304 304 303 302 303 304 306 304 301 299 296 296 297 297 297 298 299 299 298
311 310 307 305 303 303 302 302 302 302 303 307 307 309 318 321 323 325 322 320 319 314 312 313 313 314 313 309 310 309 307 309 307 304 305 307 310 309 306 306 306 309 312 311 311 311 314 316 310 308 309 306 309 310 308 309 305 302 307 310 307 306 305 305 305 304 303 303 302 302 303 304 304 305 305 304 301 297 296 296 296 296 297 297 298 298 298 297
310 308 305 304 302 302 302 301 302 302 303 306 306 310 317 321 323 322 318 320 320 313 312 314 313 312 310 308 310 308 306 307 306 306 308 309 311 311 309 308 306 308 311 310 311 310 308 309 309 308 308 307 308 307 307 306 301 302 307 308 307 306 306 304 302 301 300 301 302 302 304 305 304 304 302 298 297 296 295 296 296 296 297 297 297 297 297 297
308 305 303 303 302 302 302 301 302 303 303 305 307 310 314 318 321 318 316 317 317 314 313 311 311 311 311 311 309 307 305 305 305 308 311 310 309 309 309 307 305 307 311 310 310 311 308 308 310 307 305 307 305 302 304 303 301 304 307 307 308 307 304 302 301 300 300 301 303 303 303 303 302 302 300 296 295 295 295 296 296 296 297 296 297 297 297 297
306 304 303 302 302 302 302 301 302 303 304 306 306 307 311 317 321 318 315 312 312 315 313 311 312 312 312 312 309 308 306 304 305 306 308 309 308 308 307 305 303 305 308 309 311 311 309 309 309 306 303 302 300 299 301 301 301 306 305 305 307 304 301 300 300 301 301 301 301 300 299 299 298 299 298 295 295 295 295 295 295 295 296 296 296 297 296 297
303 303 303 302 302 302 302 302 302 303 305 305 305 309 312 313 314 314 314 310 309 315 314 312 312 311 311 313 312 312 308 304 305 305 307 310 308 307 307 304 302 302 302 305 309 309 306 306 305 306 306 301 298 298 300 299 301 304 302 300 302 301 299 300 298 298 299 298 297 297 297 296 295 297 296 294 294 295 295 295 295 295 295 296 296 296 296 296
302 302 301 301 301 302 301 301 303 305 306 305 307 312 313 308 305 305 310 310 309 313 315 312 312 310 312 314 313 311 307 304 307 308 309 310 307 305 306 305 302 299 298 301 307 307 306 305 303 305 307 301 298 300 301 301 300 298 299 299 299 299 299 298 297 295 295 295 295 295 295 294 294 295 294 294 294 294 295 295 294 294 295 296 296 295 296 297
301 300 300 302 302 302 300 301 305 306 305 305 308 311 310 308 306 305 309 311 309 312 316 314 311 310 311 313 311 308 305 305 309 309 307 308 307 303 302 303 302 298 298 300 303 305 305 305 304 302 302 299 299 301 300 300 299 296 297 298 299 299 297 296 295 294 294 294 294 294 293 294 294 294 294 294 294 294 294 294 294 295 295 295 294 295 295 297
300 299 302 305 304 303 302 304 307 308 307 308 309 311 309 308 308 307 309 310 309 311 314 314 311 310 311 310 308 307 306 307 310 309 306 307 307 303 299 299 299 297 298 299 300 303 305 306 303 300 299 297 298 302 300 297 297 296 295 295 295 296 295 294 294 295 294 293 293 293 293 293 294 294 294 294 294 294 293 293 294 294 294 293 293 294 295 296
300 301 304 306 306 305 305 307 309 309 313 312 308 311 312 310 310 310 309 310 309 309 309 312 312 311 312 310 306 307 308 309 309 308 307 306 306 304 299 297 297 297 298 299 300 303 305 304 301 298 297 296 297 301 299 296 297 297 295 294 294 294 294 294 294 294 294 293 293 293 293 293 294 294 295 294 293 293 293 294 294 293 293 293 293 293 294 296
301 304 306 307 307 307 308 311 309 308 314 313 308 309 311 310 311 310 309 308 308 308 307 309 310 309 311 310 308 308 309 309 307 306 306 305 304 302 298 296 296 296 297 299 299 300 301 301 300 298 297 297 297 297 296 295 297 298 295 294 294 294 294 294 293 293 294 293 293 294 293 294 295 296 294 293 293 293 294 293 292 292 292 292 292 293 294 296
301 304 307 307 307 307 309 311 309 309 313 311 307 308 308 308 309 308 308 308 307 307 308 308 307 306 308 307 306 307 306 306 307 306 305 303 300 298 296 295 296 295 297 299 298 297 299 300 299 297 295 295 295 295 294 295 296 295 294 294 294 294 294 294 294 293 293 293 293 293 292 293 295 295 294 293 293 293 293 292 291 291 291 292 293 293 294 295
301 303 306 307 308 308 309 309 310 311 312 308 308 309 307 306 308 308 308 307 305 306 308 307 305 304 305 303 303 306 304 302 304 304 302 301 298 296 295 295 295 295 296 298 297 296 298 300 299 295 293 292 293 293 293 294 294 293 293 294 294 294 293 293 293 293 293 293 292 292 292 292 293 294 293 293 293 292 291 291 291 291 291 292 293 293 293 293
302 302 304 306 308 309 307 307 308 310 312 310 309 310 308 305 306 306 306 305 302 302 305 304 301 301 303 301 302 305 303 301 302 302 301 300 297 295 294 295 295 295 295 295 296 297 298 299 298 295 293 292 292 292 292 293 293 293 293 294 293 293 293 293 293 293 292 292 292 292 292 292 292 293 292 292 291 291 290 291 291 291 292 292 292 292 293 293
302 303 305 305 307 309 307 305 305 307 311 310 306 307 309 307 304 302 303 303 301 300 301 300 299 301 302 301 302 304 303 302 302 301 301 300 297 295 295 295 294 294 294 296 295 296 298 298 296 295 294 293 292 292 293 293 293 293 294 293 293 293 293 293 292 292 292 292 291 292 292 292 292 292 291 290 290 290 290 291 291 291 292 292 292 292 292 293
302 304 305 305 307 308 306 305 304 305 307 306 305 306 307 306 304 302 302 302 301 300 299 299 300 302 302 301 302 303 301 300 300 299 299 299 298 296 295 294 294 294 296 296 295 296 297 296 295 295 294 293 293 293 293 294 293 293 293 293 293 293 293 293 292 292 292 291 291 292 291 292 291 290 290 290 290 290 290 291 291 291 291 291 292 292 292 292
302 304 304 306 308 307 306 305 304 304 304 304 305 306 305 305 305 304 303 301 299 299 299 299 300 302 303 302 302 301 299 298 298 297 297 298 297 296 296 295 294 295 296 295 294 295 295 294 295 294 293 293 293 293 293 293 293 293 293 293 293 293 292 292 292 291 291 292 291 291 291 290 290 290 290 290 290 290 290 290 291 291 291 291 292 292 292 292
301 302 303 304 305 305 305 305 304 304 305 303 304 305 305 306 305 304 303 301 300 300 299 299 301 301 301 302 301 301 300 299 299 297 296 297 296 296 298 296 293 294 294 293 293 294 295 295 294 294 294 293 293 294 293 293 293 293 293 293 292 292 292 292 291 291 291 291 291 290 290 290 290 290 290 290 290 290 290 291 291 291 291 291 291 292 292 292
301 302 303 303 303 302 302 303 303 304 304 303 304 304 304 305 305 304 303 301 302 302 298 299 302 300 298 300 300 301 300 299 300 298 296 298 297 296 297 297 295 295 294 293 294 294 295 295 294 293 294 293 293 293 293 293 293 292 292 292 292 291 291 291 290 290 290 290 290 290 289 289 290 290 290 290 291 291 290 291 290 291 291 291 291 291 291 291
303 302 302 303 303 302 301 302 302 303 304 303 303 304 305 305 304 304 303 300 301 302 299 299 300 298 297 298 299 299 298 297 298 297 295 297 297 295 296 296 295 294 294 294 294 294 295 295 294 294 294 293 292 293 292 292 292 292 291 291 291 291 290 290 290 290 290 290 289 289 289 289 290 290 290 290 291 290 290 290 290 291 291 291 291 291 291 291
302 301 302 304 305 302 301 301 302 302 303 303 303 303 304 304 303 303 303 300 298 298 299 298 297 297 297 297 297 297 295 293 295 294 293 294 294 293 294 294 293 294 294 293 294 294 295 294 295 294 293 293 292 292 292 291 291 292 293 291 290 290 290 290 290 290 290 290 289 289 289 289 290 290 290 290 290 290 291 291 291 291 291 291 291 291 291 292
Wind_Speed
15 16 16 17 18 19 21 23 25 26 27 28 28 27 27 27 27 27 27 29 29 28 28 29 28 25 22 18 20 16 7 11 12 12 15 16 14 12 12 13 14 15 15 12 10 8 6 6 8 9 10 9 9 10 9 7 5 3 3 2 3 2 4 5 7 6 2 6 8 9 9 4 11 14 15 16 15 19 21 27 29 27 30 32 32 31 28 28
15 16 16 17 18 19 21 23 24 25 26 27 27 27 27 27 26 26 27 29 30 29 28 29 27 23 20 18 19 13 6 9 8 12 16 15 13 11 12 13 15 16 14 12 10 8 7 8 9 10 11 9 8 9 8 6 4 2 3 1 3 5 5 6 7 6 4 9 12 15 15 8 12 13 11 10 13 14 14 24 27 24 27 26 24 22 22 23
15 16 16 17 18 19 21 22 24 25 26 27 27 27 27 27 25 26 28 30 31 30 29 28 27 22 20 17 16 12 5 6 8 12 13 13 10 10 11 14 15 15 13 11 10 9 7 8 8 10 11 8 7 9 7 6 4 1 3 1 6 6 5 8 11 11 11 13 11 15 14 11 19 17 9 8 12 13 11 19 19 18 24 24 23 19 19 22
15 16 16 17 18 19 20 22 23 24 25 26 26 26 27 26 26 26 28 31 32 32 30 28 27 22 19 15 13 11 5 6 10 12 11 10 8 9 12 14 14 13 11 9 9 8 7 8 8 10 10 6 7 7 4 6 4 2 4 4 7 3 4 11 13 15 15 12 11 15 13 13 22 19 12 9 9 11 15 23 19 18 26 28 30 27 24 27
16 16 17 17 18 19 20 21 22 24 25 25 25 25 26 26 26 27 29 32 33 33 31 28 27 22 18 12 9 9 6 5 8 10 9 8 7 9 11 12 12 12 11 10 9 7 7 8 8 10 9 4 4 4 2 5 3 2 6 10 11 3 5 16 15 14 14 10 12 14 12 14 18 16 19 13 7 13 24 33 28 26 33 34 36 34 33 33
16 16 17 17 18 19 20 21 22 24 24 24 24 24 26 26 26 27 28 31 33 32 31 28 25 20 15 9 7 8 6 3 5 7 7 7 7 9 10 11 12 12 12 10 8 7 7 7 8 8 7 3 1 1 2 5 3 2 7 9 13 8 8 18 18 16 15 11 11 13 14 18 16 17 25 21 19 29 37 40 38 38 41 39 38 37 36 35
16 17 17 18 19 19 21 22 23 23 23 23 23 24 26 26 26 26 27 31 33 32 31 28 22 17 12 7 7 10 12 8 6 6 6 6 7 8 9 10 11 12 11 9 7 7 7 7 9 7 4 2 1 2 2 5 5 4 6 7 13 12 13 21 22 22 21 15 17 20 17 18 16 13 17 21 28 37 40 41 40 40 39 37 36 34 33 32
17 17 17 18 19 20 21 22 23 23 23 22 23 24 25 26 25 26 27 30 33 33 30 25 19 15 11 7 10 15 14 10 7 6 5 6 6 7 8 9 9 10 9 8 7 7 7 7 9 7 2 0 1 3 2 3 5 6 6 9 12 16 22 26 25 26 24 18 17 15 12 18 23 16 15 26 32 30 29 31 31 32 31 30 31 30 31 31
17 18 18 19 20 21 21 22 23 23 23 22 23 23 24 26 25 25 27 29 33 32 29 23 17 14 9 7 11 12 9 8 6 5 5 5 6 6 8 9 9 8 7 7 7 6 7 6 7 6 3 3 3 3 2 1 3 7 8 10 10 20 31 29 26 27 23 17 8 5 8 19 25 16 14 22 22 19 18 21 23 26 26 24 25 26 30 33
17 18 19 20 21 22 22 23 23 24 24 22 23 23 25 26 25 25 26 29 32 30 26 20 15 12 9 8 10 8 7 9 6 5 6 5 6 7 8 9 8 7 7 8 8 8 8 7 8 7 6 5 4 4 4 2 3 7 9 14 15 23 29 26 23 22 20 14 4 7 8 19 19 6 6 14 16 17 18 21 21 23 25 23 24 27 29 32
17 19 20 21 22 23 23 23 24 24 24 23 23 23 25 26 25 24 25 29 32 30 24 17 13 10 9 11 13 8 8 10 7 6 7 6 7 8 8 9 9 9 8 9 9 10 9 8 8 7 4 3 3 5 6 5 5 7 8 12 15 18 22 21 16 12 12 9 8 5 9 13 10 3 10 18 20 18 20 24 23 22 25 25 27 31 33 32
17 19 20 22 23 23 24 24 24 24 24 23 23 24 25 26 25 23 25 30 31 29 22 14 12 7 7 13 14 9 10 11 8 9 9 9 9 9 10 11 11 12 11 10 10 9 9 7 6 5 4 3 4 2 3 6 7 7 4 5 9 10 12 15 9 8 10 10 19 16 6 5 2 7 15 21 19 17 22 26 26 25 27 29 33 35 35 33
17 19 21 22 23 23 24 24 24 24 24 24 24 25 25 25 25 22 24 29 31 29 19 13 11 4 5 8 11 10 10 10 10 11 12 12 12 10 12 12 12 14 13 11 11 10 9 8 6 5 5 4 3 3 7 9 5 5 1 1 5 8 6 9 9 12 11 9 18 18 7 8 6 12 15 17 17 18 24 29 27 29 31 32 35 36 36 33
17 19 21 22 23 23 24 24 25 24 24 25 25 25 25 24 24 21 24 29 30 27 16 11 9 5 5 5 8 10 9 9 11 13 15 15 15 12 11 13 14 15 14 12 12 10 10 9 5 4 2 3 5 7 9 7 3 2 1 2 3 5 6 9 12 10 7 6 13 14 7 11 13 17 16 16 20 20 26 33 30 29 30 32 33 33 35 35
17 19 20 22 23 23 24 24 25 25 25 25 24 25 24 23 24 21 23 29 30 25 13 8 7 5 6 5 5 9 8 7 9 13 19 19 19 16 10 13 16 16 15 12 11 11 12 9 5 2 0 3 4 5 6 4 4 3 3 4 3 3 7 12 10 3 3 6 9 9 7 11 13 22 26 23 22 21 25 35 34 31 30 31 32 32 36 39
17 19 20 21 22 22 23 24 25 25 25 25 25 25 23 22 23 19 23 30 28 22 9 7 6 5 5 3 3 8 8 6 8 13 20 21 21 18 10 13 16 16 16 12 10 12 12 8 4 3 2 2 2 3 4 4 4 4 3 5 5 5 8 11 7 1 2 3 6 4 5 12 14 22 37 35 25 21 24 33 38 35 33 31 32 33 36 39
18 19 20 21 22 22 23 23 25 25 25 25 25 25 22 21 21 18 24 30 26 20 7 4 5 5 4 5 3 9 10 7 8 11 19 22 22 18 11 14 16 15 16 11 9 13 11 7 4 2 3 3 3 3 5 5 5 4 3 2 5 6 6 8 9 4 3 2 4 6 8 14 16 20 35 41 33 26 23 30 37 36 35 33 32 32 34 38
18 19 20 20 21 22 23 23 25 25 25 25 25 26 22 20 19 17 25 29 24 17 3 3 6 5 3 8 7 12 10 6 8 9 17 23 23 18 12 16 17 15 17 11 9 15 11 7 3 1 4 4 4 6 5 4 4 5 5 4 5 5 5 6 7 8 7 4 3 7 13 17 19 19 25 36 37 28 26 32 35 33 32 31 31 32 35 35
18 19 19 20 20 22 23 23 25 25 25 25 26 27 23 23 19 15 25 28 20 11 2 7 9 2 2 8 11 13 8 5 8 10 16 24 24 18 12 16 18 16 15 9 10 14 10 7 4 3 6 5 5 3 1 6 5 6 6 4 6 7 9 9 8 7 7 9 7 6 13 18 22 22 20 32 39 31 31 36 32 27 26 28 30 31 31 31
18 18 19 19 20 22 22 23 24 23 25 26 28 27 22 22 13 9 23 25 16 8 4 9 8 3 3 6 13 13 6 3 6 11 17 24 25 17 13 18 19 16 11 3 7 9 7 6 3 2 5 7 7 1 3 4 3 5 5 5 6 6 11 11 9 8 3 5 8 6 13 21 24 23 20 29 36 29 26 29 28 25 25 25 27 29 30 31
18 18 19 19 19 21 21 22 22 21 24 25 28 24 16 14 6 6 17 17 16 10 3 4 4 4 4 5 15 16 9 4 5 12 20 24 22 13 12 17 13 9 6 2 4 5 5 5 4 6 7 8 6 3 4 0 0 3 4 6 7 4 10 12 10 10 3 2 7 8 13 23 26 25 21 23 26 22 19 20 23 23 23 24 27 29 30 30
18 18 19 19 19 20 20 21 20 19 21 22 24 21 15 12 8 8 9 10 15 8 0 3 3 5 5 6 15 17 13 8 4 14 23 22 19 12 10 11 6 3 5 4 3 5 6 4 8 7 5 5 4 4 6 2 1 3 4 5 6 4 7 10 9 9 3 1 6 10 11 22 29 26 21 18 16 19 23 23 18 18 22 24 27 28 30 33
18 18 19 19 18 19 19 20 19 18 20 20 20 19 15 14 13 10 6 8 10 4 1 3 4 6 8 7 13 14 13 9 5 16 23 18 17 14 8 6 3 4 4 4 5 5 4 6 8 4 2 2 4 4 4 2 1 3 4 4 7 6 5 7 9 12 11 6 4 5 8 15 24 22 17 17 17 17 22 28 19 20 23 22 25 29 33 35
18 19 19 19 18 18 18 19 17 17 20 19 17 17 15 16 15 11 7 6 5 3 1 2 3 6 8 9 13 12 9 6 6 15 18 16 15 10 4 3 3 4 2 2 1 4 7 9 5 3 4 1 3 6 4 3 3 3 6 5 7 8 7 8 9 11 15 14 4 2 6 9 16 21 15 14 18 15 19 27 19 20 23 24 28 31 34 35
19 19 19 19 17 17 18 17 15 16 19 17 15 16 16 16 14 10 7 3 3 4 1 2 2 3 6 9 12 12 6 4 10 15 15 17 15 7 4 3 2 3 4 1 2 6 7 7 3 3 3 1 1 6 3 0 4 4 4 7 8 9 9 10 11 8 10 15 4 7 6 10 14 23 18 12 16 15 16 16 11 18 21 24 26 28 31 33
19 19 18 19 17 16 17 15 15 17 18 16 14 15 14 15 14 7 4 2 2 4 1 1 1 2 4 8 13 14 4 3 12 13 14 17 14 8 5 2 1 2 3 1 2 4 4 4 2 2 5 3 2 5 3 3 1 5 3 4 5 6 8 10 10 7 5 13 10 5 5 10 13 21 17 12 15 15 12 8 10 15 18 20 23 25 29 32
19 19 18 18 17 16 15 14 14 15 15 14 14 14 13 14 12 5 4 4 1 2 1 1 1 0 3 8 14 11 2 7 11 8 13 16 12 9 4 3 2 3 1 2 3 2 2 6 6 3 3 2 3 5 3 3 3 4 4 2 5 7 9 10 7 5 5 12 15 5 4 8 12 16 10 7 12 12 8 7 10 15 20 22 24 26 29 32
18 19 17 18 17 15 14 13 13 14 13 13 13 12 12 12 9 4 4 3 2 1 2 0 1 0 4 7 11 7 1 6 5 5 13 14 12 9 3 2 1 6 3 3 3 5 1 3 4 4 4 2 3 4 2 3 3 6 6 6 8 7 8 8 5 6 6 8 12 7 3 6 11 11 6 5 10 10 7 10 10 13 22 25 25 29 31 33
18 18 17 17 17 15 13 12 12 12 12 12 12 11 11 11 6 4 5 1 2 1 2 0 1 2 7 6 6 7 2 2 2 6 10 10 13 11 3 4 2 6 5 4 5 6 3 6 6 3 4 3 3 4 3 5 2 7 8 8 7 5 6 6 4 5 5 6 12 11 5 5 11 12 5 4 8 6 5 7 7 12 22 25 26 30 33 35
18 18 16 16 16 15 13 12 11 10 11 11 10 9 10 8 3 5 3 3 1 0 2 1 1 3 8 6 4 7 4 1 5 8 9 9 15 15 6 4 2 2 4 1 2 6 7 11 7 1 2 4 3 2 3 6 3 6 6 7 8 8 6 4 3 1 1 6 12 10 3 3 12 12 3 4 8 6 5 7 9 16 24 26 28 30 32 36
18 17 16 15 15 13 12 12 10 9 10 10 9 9 9 5 4 3 4 3 0 1 1 1 1 2 6 4 2 5 4 4 7 8 8 9 12 16 10 3 5 5 3 4 3 5 8 9 3 3 4 3 2 3 3 6 7 8 5 5 6 6 4 3 3 1 1 9 12 7 6 8 14 10 5 8 8 8 7 9 12 14 17 22 25 26 30 34
18 17 16 15 14 12 12 11 8 8 9 8 7 8 5 4 2 2 4 2 2 2 1 1 1 2 4 3 1 3 3 3 5 6 4 4 4 6 6 2 2 5 2 2 3 4 5 5 3 2 5 10 6 4 5 4 8 7 3 4 4 4 5 5 5 2 4 10 14 11 10 10 15 10 7 6 6 8 9 13 17 17 16 20 21 21 27 32
18 17 16 16 14 12 11 9 8 8 8 7 5 4 5 3 3 4 3 3 2 1 2 1 1 3 2 2 1 2 1 1 3 3 1 2 4 2 2 2 1 1 2 3 3 4 4 4 3 2 2 11 9 4 5 4 6 6 2 2 3 3 4 6 7 7 7 10 18 17 9 9 12 4 3 3 5 10 17 24 31 30 23 22 22 22 25 29
18 17 17 15 13 13 11 9 8 7 7 6 2 3 3 3 5 4 3 5 4 2 3 2 3 3 2 0 2 1 1 1 2 3 2 3 4 2 3 5 5 1 2 3 2 2 3 4 3 2 1 7 7 4 1 3 8 6 0 3 2 3 1 4 6 9 10 11 18 15 6 8 8 2 5 6 11 21 32 40 44 40 35 37 39 38 38 37
19 18 17 15 14 13 11 10 9 7 7 5 2 3 2 5 4 2 3 5 2 2 2 1 2 1 2 2 2 2 1 1 1 3 3 3 1 1 1 3 5 3 0 2 3 1 1 5 4 2 4 7 5 2 2 3 7 3 1 3 2 3 3 4 8 12 11 11 13 8 5 9 10 8 8 12 18 28 38 46 45 38 38 44 45 44 45 45
20 19 17 16 15 14 12 11 9 8 8 4 3 2 5 5 4 3 3 1 1 1 1 3 1 1 3 2 2 3 1 0 2 2 2 1 1 1 2 1 3 3 3 2 2 2 1 4 3 4 4 9 5 6 3 2 3 2 3 2 3 4 5 3 7 11 8 8 8 6 9 13 11 9 8 16 24 27 30 33 30 27 33 39 38 37 39 40
21 20 18 17 16 15 13 12 9 9 9 6 3 5 5 4 5 4 2 1 2 3 3 2 1 2 1 1 2 3 2 1 1 2 1 1 1 2 3 1 3 4 3 1 0 2 1 7 5 2 2 3 9 12 4 5 6 3 4 5 5 3 3 2 4 5 4 7 7 7 14 18 12 6 7 18 24 23 21 20 18 24 35 37 37 39 40 39
21 20 19 18 17 16 14 12 10 10 8 4 3 6 3 3 4 3 3 4 2 3 4 2 3 2 2 2 2 3 1 1 1 1 0 1 0 3 4 1 3 6 6 2 1 1 1 7 5 5 4 3 9 7 3 5 10 6 3 7 5 3 3 3 5 6 6 9 8 8 15 18 10 6 12 19 21 19 18 18 19 25 31 33 37 40 41 39
20 16 14 15 16 17 15 12 11 10 6 3 4 4 2 3 3 3 5 4 3 2 2 4 3 1 2 3 3 3 1 1 1 0 1 1 0 3 4 1 2 8 9 5 2 1 1 3 5 2 6 4 5 4 1 5 5 7 2 4 3 2 2 3 4 4 5 8 10 7 11 14 6 8 16 18 17 17 19 21 20 22 28 35 38 39 39 37
17 11 10 12 13 13 12 10 9 8 4 3 5 3 1 2 3 4 7 5 3 3 2 3 2 2 2 3 3 1 1 2 3 2 2 1 1 2 3 1 1 5 7 5 3 2 2 1 7 6 5 6 3 1 1 5 3 3 3 3 3 2 2 5 4 3 2 5 7 6 10 13 5 8 13 16 17 20 22 22 19 22 33 39 39 39 39 36
15 7 8 11 10 10 10 9 7 5 2 2 3 2 1 1 2 3 5 5 4 3 3 3 3 3 3 2 2 2 2 1 2 2 2 1 1 1 1 1 0 2 3 5 3 0 1 1 5 10 9 6 3 4 3 1 2 2 2 3 3 2 3 5 6 4 1 4 6 6 12 14 4 4 10 14 17 19 21 21 18 24 35 39 42 43 41 38
14 7 8 12 11 10 11 7 2 2 2 3 2 2 2 1 2 2 4 4 3 2 1 2 2 2 3 2 2 3 3 2 3 2 2 1 1 1 3 2 1 0 2 2 2 1 2 1 2 8 8 5 9 7 2 7 6 4 3 1 1 2 2 3 6 7 6 7 7 6 13 13 3 2 9 13 16 20 25 26 22 26 34 38 42 43 40 38
13 10 10 11 12 13 11 3 2 2 3 3 2 2 3 2 1 1 2 2 2 1 1 0 2 2 2 2 2 3 3 2 3 3 2 1 1 3 6 5 3 2 2 1 2 0 2 2 1 6 7 4 6 2 6 7 5 5 1 1 1 4 5 5 7 7 6 8 8 7 12 12 4 5 12 16 19 23 29 33 30 29 33 35 39 42 42 42
11 10 10 10 12 15 10 3 3 4 4 2 1 2 2 3 2 2 2 2 1 2 2 0 1 1 1 1 2 3 3 1 1 2 2 2 3 8 7 4 3 2 1 2 1 1 0 0 3 4 8 6 4 3 0 1 3 3 3 5 6 10 10 7 6 5 4 8 12 10 10 12 10 9 13 17 20 21 25 34 36 33 32 35 38 42 46 46
6 6 8 10 15 17 9 4 3 3 3 1 1 2 2 1 4 4 4 3 2 3 2 1 1 2 2 2 3 0 2 0 1 1 2 2 3 8 5 4 3 2 4 6 3 1 1 1 2 0 5 6 6 6 6 6 6 4 6 11 14 15 12 9 6 5 6 10 14 10 10 15 15 13 17 19 19 20 23 30 35 35 36 39 41 43 46 46
6 4 4 6 13 17 11 7 4 2 2 2 1 2 5 3 3 5 4 3 3 4 3 1 3 3 2 2 2 1 2 1 1 2 2 2 2 5 6 5 5 6 6 3 2 3 2 1 2 5 7 7 7 9 9 8 7 7 9 14 18 16 13 9 5 6 9 11 11 11 14 20 19 18 21 22 20 21 20 21 28 35 40 43 45 45 45 47
7 4 5 5 6 11 9 6 7 4 3 5 2 1 5 4 1 2 4 3 4 5 3 1 3 3 3 5 3 2 2 1 1 3 2 2 2 1 4 5 5 4 4 5 4 3 3 1 4 9 11 9 8 11 13 10 8 7 10 15 19 17 14 10 8 11 12 10 12 14 16 20 20 20 23 22 21 19 16 16 25 36 42 45 48 49 49 50
10 5 9 10 5 4 5 7 11 9 4 5 4 1 4 5 3 4 4 2 3 5 3 1 2 4 4 6 5 2 3 1 1 2 2 1 1 2 3 4 2 4 7 5 3 4 3 3 6 8 10 9 7 10 12 10 8 7 10 17 18 17 15 13 13 15 11 9 15 19 20 20 19 20 22 22 21 20 19 25 33 39 44 47 49 51 51 52
13 5 9 12 7 5 6 8 12 12 8 5 4 3 5 6 6 4 1 2 2 3 5 4 4 4 4 5 5 3 3 3 2 2 3 2 1 1 1 2 0 4 5 3 1 3 2 1 4 5 8 8 7 9 10 9 8 8 12 18 17 16 16 14 14 15 12 14 21 22 20 20 18 17 19 24 32 34 33 36 40 40 43 46 48 50 52 54
19 14 12 10 5 5 8 8 9 9 7 6 5 5 6 7 7 4 2 4 4 2 4 6 5 5 4 3 5 3 4 5 3 3 5 3 0 1 1 1 2 2 2 0 1 1 2 1 2 2 5 8 7 7 9 8 7 9 15 19 17 15 14 11 12 12 11 17 23 21 17 17 15 16 20 29 42 44 35 32 37 39 42 46 47 51 54 57
28 24 20 12 4 6 9 7 7 5 3 6 7 5 5 7 9 6 3 7 8 4 5 7 6 5 3 2 5 5 3 5 4 6 9 7 4 4 3 3 4 2 1 2 1 0 1 2 2 3 3 8 7 7 11 11 7 11 15 14 11 10 10 11 13 11 11 18 22 18 14 12 13 16 22 28 36 37 27 24 32 40 46 49 47 51 59 62
32 25 23 15 5 8 10 5 5 6 5 7 9 6 6 7 10 10 4 5 8 7 6 9 9 6 3 4 6 7 5 5 5 6 8 7 7 8 8 8 7 5 3 2 1 1 2 2 0 1 1 7 11 9 10 11 8 8 7 3 4 10 13 15 14 12 13 17 16 12 11 14 16 20 22 23 27 30 28 27 33 42 52 57 58 59 61 60
Wind_Direction
16 15 14 14 13 11 11 11 11 10 9 9 9 6 3 2 2 1 359 357 354 352 349 350 350 348 352 352 352 3 54 79 74 64 55 48 35 28 28 20 12 3 354 348 340 336 341 360 356 359 5 10 16 2 359 9 5 2 90 72 294 203 195 192 189 205 237 296 293 307 321 298 294 304 302 298 275 270 278 277 274 270 273 276 279 284 284 285
14 13 12 12 11 10 8 9 9 9 9 10 9 6 4 5 6 4 1 358 355 352 349 350 352 347 348 349 353 7 80 90 68 55 46 36 27 24 21 9 359 353 348 348 348 350 353 5 6 3 6 19 28 4 356 360 2 47 114 102 253 204 209 204 207 215 224 287 296 303 314 301 287 300 305 296 281 284 284 284 284 279 285 292 289 287 284 285
12 11 11 11 9 8 6 7 8 8 9 10 10 6 5 8 8 5 1 358 355 353 349 349 353 349 345 347 354 5 107 111 42 37 27 14 18 19 6 355 350 347 350 353 354 357 356 8 7 357 2 25 26 360 359 354 342 124 127 267 242 214 245 243 239 250 256 279 295 300 308 299 292 300 294 279 291 295 276 280 282 272 287 304 305 302 294 291
11 10 10 9 6 5 3 4 6 7 10 11 10 7 6 7 7 3 360 358 355 353 349 347 352 351 346 348 357 3 130 127 24 20 6 2 19 8 354 349 349 350 353 353 354 358 359 7 355 352 5 26 18 2 7 348 338 157 155 211 231 199 290 264 256 272 277 281 282 289 303 299 297 298 277 271 302 299 279 280 278 274 291 303 304 304 299 295
9 8 8 7 3 1 1 2 4 6 10 11 10 7 6 5 4 1 359 358 355 352 348 346 351 354 350 353 10 20 121 135 10 20 15 18 18 356 354 354 358 358 358 355 356 356 350 350 342 358 12 16 18 19 4 323 327 222 225 228 244 231 275 275 275 285 287 287 286 291 299 294 296 291 274 266 257 267 279 288 287 288 294 298 299 300 298 295
6 5 5 2 359 358 358 360 1 5 8 10 9 6 6 4 2 358 356 356 355 352 347 345 351 358 358 6 27 33 94 112 3 28 25 20 9 358 1 0 5 2 359 355 351 352 347 346 348 7 21 16 19 12 323 293 259 263 263 247 265 250 241 276 284 286 287 284 281 283 288 293 292 286 279 260 246 268 283 290 290 291 295 296 297 298 298 297
3 2 0 357 356 355 356 358 359 2 5 8 8 5 4 4 1 356 354 354 354 351 346 346 353 3 11 28 57 62 81 79 37 39 27 21 11 1 358 355 0 355 354 352 352 5 357 359 3 11 28 16 285 234 291 275 220 221 270 276 288 274 255 277 287 289 288 277 275 281 286 288 276 278 289 265 262 280 291 294 294 297 301 300 300 303 304 302
360 358 356 354 353 353 354 355 356 359 1 5 6 3 0 2 0 354 352 352 353 351 345 347 355 8 26 68 88 77 70 55 41 43 21 12 358 350 347 341 345 347 354 357 1 12 5 16 9 359 11 342 249 245 265 287 237 201 240 274 294 293 284 290 297 296 294 286 282 279 266 273 274 275 283 276 282 297 306 308 307 307 309 306 305 312 313 308
356 355 352 351 350 351 352 352 353 355 357 1 3 1 357 359 360 355 352 350 352 350 345 349 360 15 43 88 89 76 56 33 30 25 3 353 344 343 341 338 342 348 356 354 353 354 356 11 354 333 296 256 254 250 175 18 263 202 236 278 292 295 295 302 305 302 306 304 279 215 233 273 284 288 275 277 300 323 322 317 310 303 301 299 303 311 312 309
352 351 350 348 348 348 348 348 350 351 354 356 359 359 356 356 359 357 353 349 351 350 346 351 7 28 56 79 82 75 45 29 16 2 356 346 352 351 349 352 356 358 349 336 334 335 344 349 336 320 290 258 238 238 188 155 253 222 262 290 289 291 296 303 302 304 318 315 258 178 232 273 281 289 256 282 324 330 309 302 295 289 287 288 294 302 304 304
348 349 348 346 346 345 345 346 348 349 350 352 355 357 354 354 357 358 354 350 349 350 346 353 14 44 67 63 77 83 38 24 8 7 6 358 11 12 15 17 14 12 355 339 335 334 342 344 336 323 292 248 248 248 214 215 262 265 289 295 293 302 302 302 301 318 344 330 306 262 229 266 284 204 247 287 318 318 299 293 288 283 284 288 292 297 298 298
346 347 346 345 343 342 344 346 347 348 348 350 353 355 354 353 354 356 354 351 349 348 347 354 14 59 79 55 68 70 32 27 25 26 21 16 22 27 33 30 24 19 4 351 344 335 339 338 332 312 271 265 292 317 245 263 284 283 299 284 303 339 316 306 314 340 355 329 326 330 268 260 247 222 270 300 318 310 295 289 288 289 288 290 291 293 295 297
345 346 345 342 341 341 343 346 347 347 349 351 352 354 355 351 351 354 354 353 348 346 347 354 11 79 101 50 59 51 35 40 44 37 30 26 23 28 34 32 29 20 9 357 344 335 340 340 329 290 265 267 282 321 296 295 298 279 327 208 318 352 305 307 330 332 345 324 338 354 316 297 278 252 286 316 322 314 302 296 293 292 291 292 294 296 298 299
342 344 342 340 339 340 343 346 346 348 351 352 353 355 353 350 350 351 353 354 348 344 346 356 14 103 116 75 61 44 44 51 48 40 33 30 24 23 26 28 27 19 11 358 341 341 350 348 333 293 253 254 276 298 303 318 355 284 7 61 355 345 281 307 319 325 354 317 343 4 298 294 301 291 307 321 321 319 305 302 300 296 296 299 301 304 306 308
339 341 339 338 338 338 343 345 346 350 352 353 354 354 352 351 350 348 353 355 348 343 343 359 16 131 124 90 61 36 48 51 41 34 27 25 21 16 15 19 20 20 14 356 344 353 358 352 340 349 299 266 297 323 318 337 1 19 19 336 342 325 293 307 303 301 11 303 344 6 293 294 301 298 310 316 319 318 305 304 305 303 304 307 311 313 314 318
335 337 337 336 336 338 342 345 347 351 352 353 353 352 353 352 349 347 352 354 350 343 341 1 8 149 124 65 58 24 29 33 31 30 20 17 14 10 9 11 18 23 12 356 352 0 1 358 357 24 25 332 25 21 358 3 343 12 32 319 310 314 314 320 305 174 99 317 341 2 278 293 299 302 310 312 316 318 306 303 304 307 311 314 317 318 321 324
331 333 334 335 336 337 341 345 348 350 353 353 351 352 355 353 349 350 353 354 352 344 337 3 4 150 96 38 51 360 0 19 27 27 16 11 8 7 8 8 18 22 10 4 1 3 4 358 346 353 28 42 56 43 21 11 330 330 10 314 288 287 295 313 309 311 72 57 322 307 273 280 288 296 306 309 314 317 306 301 304 309 316 321 323 325 327 327
328 329 331 336 337 336 341 346 348 350 353 351 349 352 354 352 351 356 356 353 352 349 329 5 16 145 73 24 20 345 348 24 28 25 12 7 5 4 7 6 12 15 11 14 4 5 5 351 3 23 11 12 18 49 33 324 283 294 314 306 297 286 260 263 280 300 332 334 275 293 292 290 294 296 303 307 311 312 303 300 303 310 320 326 328 329 333 339
324 326 330 336 337 336 341 346 347 350 351 349 350 352 352 352 353 1 358 353 356 5 291 319 348 184 288 2 9 351 354 27 28 26 9 4 3 2 10 4 2 13 20 17 352 2 7 353 25 29 349 329 322 31 262 255 238 270 287 276 293 303 285 268 256 274 320 320 303 299 295 298 302 302 306 308 309 308 303 303 306 317 329 330 333 341 353 10
321 325 329 334 336 336 340 346 348 348 349 349 351 353 355 357 357 354 354 353 356 2 298 312 333 328 323 5 11 10 21 31 29 24 5 1 1 359 8 360 356 13 32 26 315 348 22 8 350 276 282 279 289 260 211 238 228 281 298 279 284 292 289 292 287 287 353 328 306 319 304 300 300 299 304 306 306 305 305 307 313 328 340 344 356 11 23 28
320 324 328 333 336 336 339 345 346 347 350 351 352 357 7 13 13 324 340 344 341 339 327 344 5 12 23 28 12 14 22 31 44 17 0 358 1 358 359 3 5 9 3 311 284 323 25 10 280 246 237 255 277 142 144 176 288 289 297 296 303 280 278 290 291 295 355 349 304 337 318 301 297 297 300 302 301 301 304 308 318 342 3 18 27 27 25 20
319 323 326 331 335 335 336 343 345 347 350 349 351 2 13 13 6 332 323 313 319 321 305 28 60 40 41 37 13 12 12 19 37 4 358 358 5 2 356 15 34 334 328 0 355 342 0 308 258 251 240 258 300 102 126 145 161 273 282 303 306 289 284 293 293 300 337 78 311 334 319 297 293 294 296 294 289 294 302 307 328 21 37 37 34 23 15 12
316 320 324 329 334 333 334 340 342 344 347 349 355 3 5 359 356 348 321 285 303 304 129 60 86 44 38 36 13 11 12 18 359 356 1 2 4 5 13 33 4 323 353 34 16 347 325 273 260 274 305 294 315 17 80 85 87 225 260 297 291 298 312 297 307 319 315 290 271 291 289 285 288 290 293 289 287 295 306 311 336 51 56 36 29 19 12 6
313 319 322 328 333 329 332 336 336 339 345 353 359 359 357 353 353 351 326 277 283 306 140 100 78 37 32 25 11 7 12 34 7 358 7 11 11 12 25 46 3 334 347 51 8 279 271 272 288 13 32 70 284 315 2 5 332 238 227 247 270 292 293 277 306 328 315 302 271 184 273 275 284 289 290 293 298 306 310 311 338 49 46 25 24 17 8 4
311 317 320 327 330 326 329 331 331 338 344 352 356 353 353 350 350 349 333 296 284 314 199 151 14 32 23 17 13 358 359 60 16 7 15 18 20 18 357 32 47 321 293 287 262 270 271 275 319 21 349 35 299 300 313 284 318 305 241 228 246 280 289 288 310 340 327 305 330 76 316 286 285 288 292 305 304 302 306 316 9 44 31 21 19 10 5 6
309 315 318 323 325 323 326 327 330 338 342 347 351 351 349 346 349 347 342 17 299 302 128 155 327 34 2 8 9 358 0 30 357 4 20 16 18 20 356 4 44 305 272 266 283 276 275 291 14 11 290 315 343 298 255 171 358 315 257 209 232 269 289 291 305 331 321 291 306 36 306 284 286 285 291 302 294 296 310 345 39 30 20 17 10 6 7 10
306 312 316 318 319 320 323 325 329 335 337 341 348 349 346 346 352 349 356 19 325 270 121 133 210 52 347 3 12 9 329 332 340 357 13 9 15 23 351 325 359 290 256 49 329 276 287 322 355 2 308 331 333 303 251 150 95 270 259 340 320 306 290 286 292 292 272 283 297 302 229 268 281 281 292 295 286 298 326 20 29 12 10 6 3 8 13 15
303 308 311 312 313 315 320 322 326 333 336 340 345 345 345 347 346 14 44 6 312 144 130 155 173 88 356 8 22 39 263 326 351 355 3 10 17 20 339 265 271 270 275 121 265 280 260 307 314 310 319 308 276 281 237 106 97 264 292 332 312 292 273 281 285 275 283 293 294 289 242 267 273 282 332 332 297 312 353 21 17 2 359 356 1 11 16 17
298 303 307 306 306 310 315 317 321 329 334 340 342 338 343 342 342 54 70 287 314 92 158 211 173 311 349 2 24 38 38 8 18 334 356 22 20 19 323 270 282 278 278 163 226 268 243 259 268 275 290 250 246 264 172 100 38 292 316 328 302 289 275 280 272 273 309 294 280 287 278 261 275 290 346 344 310 339 19 11 8 358 353 354 5 13 14 11
293 298 301 300 300 305 309 311 315 323 330 335 332 332 339 339 23 52 354 257 300 36 191 148 206 311 355 6 1 13 30 31 356 347 358 15 16 22 6 287 1 335 299 5 258 267 281 287 283 298 281 217 204 303 146 121 20 331 344 340 322 322 315 300 286 277 336 276 274 280 271 294 291 293 3 344 325 20 38 357 359 355 353 359 8 12 10 5
290 293 295 293 294 298 300 303 310 317 324 328 323 330 338 344 74 81 268 245 18 314 130 63 323 14 34 39 331 343 6 350 358 11 6 360 10 19 19 358 19 15 342 359 330 298 315 312 304 97 50 42 76 23 91 113 44 18 2 344 332 323 322 315 329 34 245 276 279 294 351 326 290 291 347 333 342 37 31 3 357 349 354 4 7 8 5 360
287 288 289 288 289 291 292 297 308 312 315 318 319 334 360 5 19 199 241 326 352 287 120 125 327 56 67 57 296 299 336 331 359 33 27 13 33 25 28 72 356 351 349 331 320 335 320 290 290 138 61 35 35 9 6 53 46 23 322 346 0 331 323 314 326 328 255 271 281 303 344 308 275 290 337 340 30 39 4 353 348 345 359 5 4 5 0 354
283 283 283 282 282 283 285 290 296 301 303 301 311 359 58 35 285 218 226 315 273 267 64 109 44 73 98 48 285 279 336 278 338 18 84 53 62 51 1 39 25 298 272 288 309 353 324 291 348 314 23 42 56 49 356 339 1 351 308 39 15 349 332 309 310 302 278 277 286 302 327 292 275 300 40 43 38 3 350 349 346 346 352 355 354 353 350 347
278 278 276 275 276 277 278 280 280 289 289 278 301 35 42 287 257 223 225 248 249 359 50 98 40 37 87 4 275 265 89 229 326 7 24 38 39 12 331 345 8 5 244 302 308 344 324 299 337 317 350 46 53 73 131 299 333 331 154 93 71 79 17 296 294 291 293 291 292 303 308 280 293 11 60 26 354 348 350 346 343 344 347 347 345 343 342 342
273 272 269 267 269 270 270 268 271 278 263 245 80 75 237 255 259 243 232 241 275 357 18 77 81 36 316 327 311 286 182 216 350 13 15 41 59 45 20 325 342 355 340 343 313 282 293 268 264 354 69 86 69 68 179 314 331 311 68 61 91 132 185 259 270 267 280 288 286 299 269 267 302 324 353 6 351 350 350 342 339 342 345 343 339 338 338 336
269 266 263 259 260 264 266 262 265 264 238 195 93 190 217 233 236 207 206 210 109 139 345 348 95 163 291 307 323 328 14 67 24 22 347 28 76 113 102 314 329 8 53 51 319 359 352 271 284 350 54 101 60 338 308 307 306 295 8 6 242 219 184 226 275 262 271 283 282 301 283 281 305 311 345 5 352 348 342 332 329 333 337 336 331 331 331 329
265 263 259 254 255 259 259 258 260 249 222 166 155 226 216 223 213 182 167 132 124 116 77 345 243 170 242 242 268 302 352 13 19 34 296 318 45 124 126 12 6 28 41 106 155 81 287 282 275 212 178 76 4 351 23 81 64 39 330 307 280 273 174 184 288 270 273 277 277 304 294 294 304 301 1 4 344 332 325 321 324 330 332 330 325 326 324 320
262 261 258 252 252 255 252 256 255 233 205 155 218 245 215 208 203 159 151 144 127 90 99 201 233 157 183 219 237 250 299 341 321 16 353 241 170 115 113 79 13 11 2 20 42 97 21 305 290 143 132 342 351 15 67 50 60 85 305 320 343 1 356 333 314 309 314 293 286 308 299 294 302 325 348 346 327 318 321 324 328 328 326 323 320 319 316 314
260 257 255 250 251 252 249 251 240 211 186 166 226 246 220 227 247 188 173 151 127 123 147 215 234 129 170 183 193 224 246 222 202 96 119 154 249 91 87 89 359 359 359 42 75 303 51 306 280 114 85 357 349 49 1 319 37 94 66 351 13 36 337 306 286 290 309 288 285 309 297 286 314 349 332 325 316 318 324 323 323 320 317 317 316 314 311 308
253 246 252 246 244 246 239 229 211 187 176 195 203 225 276 264 261 205 182 177 162 168 204 213 194 193 203 191 198 185 125 179 161 154 199 133 96 92 62 37 23 355 355 49 74 358 59 229 271 298 2 3 355 122 277 317 355 50 41 21 11 13 304 283 268 243 229 270 290 315 283 275 327 354 317 313 316 318 319 316 315 314 314 314 313 311 308 303
239 234 253 239 230 228 206 192 190 177 189 233 205 226 287 314 275 222 192 200 207 206 204 178 167 188 185 177 211 172 122 184 172 162 222 196 92 79 87 86 337 323 3 41 47 3 101 172 273 295 320 347 304 258 250 214 157 154 82 34 349 333 328 311 295 288 294 285 296 302 281 283 324 337 304 313 314 311 311 309 308 312 313 313 312 310 307 302
223 226 248 232 221 205 184 178 205 170 192 230 220 225 250 303 296 234 205 209 222 222 187 161 168 184 174 160 193 173 140 175 197 196 222 213 38 98 144 119 8 236 105 26 306 219 133 109 270 286 292 286 287 293 157 149 144 123 103 74 268 284 325 296 285 302 309 291 288 273 275 286 311 280 298 308 304 304 308 307 308 310 311 311 312 311 309 305
215 223 229 220 208 190 179 193 268 215 228 237 231 231 238 262 285 213 218 221 215 202 165 186 181 179 192 162 136 169 166 154 187 185 145 115 71 140 144 112 66 76 90 37 297 96 99 76 354 295 291 272 284 325 127 139 98 74 26 287 264 287 287 262 269 291 292 291 296 274 272 284 301 305 302 303 303 306 307 307 308 309 310 312 313 313 311 308
217 223 215 207 196 184 183 220 206 209 242 242 241 244 227 237 229 196 211 218 196 162 144 194 196 174 179 99 98 174 192 139 151 150 128 139 155 157 146 83 57 105 122 211 239 62 130 355 44 329 313 319 333 359 158 274 33 61 307 313 305 292 293 288 281 286 283 288 291 285 281 288 298 306 302 302 306 305 304 307 309 309 309 311 313 313 310 308
209 214 210 203 195 189 202 239 188 184 217 202 281 243 192 230 228 212 209 206 183 153 140 158 145 114 103 73 53 211 226 217 165 143 109 120 167 184 199 339 353 205 241 242 233 73 194 225 98 81 299 305 306 302 294 310 340 349 331 322 307 301 307 309 304 304 296 287 286 283 281 287 295 306 303 303 307 305 304 309 310 309 309 311 311 310 307 306
188 192 198 186 195 204 223 240 207 166 161 167 295 228 183 196 225 206 200 199 185 153 126 138 137 108 115 125 95 242 248 331 63 128 136 141 176 207 236 295 294 258 252 223 145 91 115 168 179 205 231 247 260 273 284 301 311 313 320 309 296 297 304 305 306 294 286 287 285 277 281 292 303 310 306 305 307 304 305 310 310 309 310 310 309 306 303 302
189 190 176 160 196 215 228 233 210 193 147 169 194 182 180 193 229 192 195 198 189 163 124 108 153 157 181 159 146 204 212 18 67 136 143 173 170 243 259 268 274 241 170 126 90 83 101 228 226 223 237 245 254 271 281 290 293 299 305 292 286 292 300 300 290 280 284 293 289 286 292 298 303 306 304 304 304 300 301 307 306 305 306 306 305 303 300 299
200 198 181 181 189 192 208 219 204 199 185 175 187 155 172 188 188 195 202 181 176 176 164 192 202 200 198 168 153 166 156 112 240 175 123 134 150 9 315 284 272 153 140 109 60 95 117 240 224 227 251 249 240 260 272 280 288 290 281 276 280 289 293 290 282 279 284 285 281 292 301 297 297 302 300 301 301 298 300 303 302 301 302 301 300 299 298 297
196 190 179 189 199 178 176 187 187 195 203 190 196 201 186 194 197 196 174 130 202 217 189 205 222 200 192 165 147 161 180 176 235 217 155 142 191 156 350 316 311 141 129 86 54 135 123 246 217 230 268 265 241 249 260 268 278 279 274 275 282 285 283 281 278 280 286 278 278 292 300 294 295 299 297 301 301 298 299 302 299 297 298 298 298 297 296 296
202 202 184 174 185 178 168 164 169 189 202 192 208 214 190 196 201 194 157 168 195 229 187 207 214 172 168 159 150 184 198 158 149 181 162 136 104 177 173 225 192 158 134 121 277 206 166 229 221 213 285 286 269 259 266 268 266 269 273 276 279 282 281 281 286 294 297 286 287 299 302 295 295 296 298 302 301 298 299 300 298 298 299 298 296 295 295 296
212 210 202 188 168 164 169 166 159 170 204 199 203 197 181 200 198 185 209 209 202 202 187 191 178 146 139 156 178 215 212 154 162 180 169 170 196 199 190 175 160 152 203 205 225 295 195 250 333 43 325 288 289 300 297 295 288 274 269 267 270 281 290 292 293 300 298 291 297 307 305 296 299 302 301 301 299 297 298 301 304 304 304 302 297 296 296 295
208 205 204 201 189 169 174 165 157 185 213 197 192 188 184 201 191 179 205 233 208 215 216 184 158 135 145 190 205 226 215 181 192 188 184 209 230 227 228 224 205 190 186 172 152 218 194 185 264 65 356 284 291 306 308 312 316 285 257 238 284 296 299 297 294 294 293 294 301 308 299 296 302 303 302 301 301 300 302 311 315 312 309 306 300 296 295 295